Regional Weather Roundup
Issued by NWS

Home | Current Version | Previous Version | Graphics & Text | Print | Product List | Glossary On
Versions: 1 2 3 4 5 6 7 8 9 10 11 12 13 14 15 16 17 18 19 20 21 22 23 24 25 26 27 28 29 30 31 32 33 34 35 36 37 38 39 40 41 42 43 44 45 46 47 48 49 50
000
ASUS43 KIND 271259
RWRIN

WEATHER ROUNDUP FOR INDIANA
NATIONAL WEATHER SERVICE INDIANAPOLIS IN
900 AM EDT MON MAR 27 2017

NOTE: "FAIR" INDICATES FEW OR NO CLOUDS BELOW 12,000 FEET WITH NO
SIGNIFICANT WEATHER AND/OR OBSTRUCTIONS TO VISIBILITY.

* - STATION DOES NOT REPORT WEATHER SUCH AS PRECIPITATION OR FOG.

+ - STATION NOT QUALITY CONTROLLED BY THE NATIONAL WEATHER SERVICE.
    USE DATA WITH CAUTION...ESPECIALLY DEWPOINT AND RELATIVE
    HUMIDITY OBSERVATIONS.

INZ001>003-010>013-019-020-271400-
NORTHWEST INDIANA

CITY           SKY/WX    TMP DP  RH WIND       PRES   REMARKS
GARY /AIRPORT/ CLOUDY    50  46  87 CALM      29.95R
KNOX *+        CLOUDY    48  37  66 W5        29.95S
MONTICELLO +   MOSUNNY   49  47  93 CALM      29.94S

$$

LMZ046-743>745-271400-
SOUTHERN LAKE MICHIGAN

STATION/POSITION TIME  TEMP    WIND        PRES    WAVE
                       AIR SEA DIR/SP/G            HT
                 (UTC) (F)     (DEG/KT/KT) (MB)    (FT)
BURNS HARBOR     1240   48     260/  5/  7 1014.6R
MICHIGAN CITY    1230   48     230/ 12/ 12   N/A

$$

INZ004-005-014>016-021>024-271400-
NORTH CENTRAL INDIANA

CITY           SKY/WX    TMP DP  RH WIND       PRES   REMARKS
ELKHART        CLOUDY    50  48  93 W8        29.95R FOG
GOSHEN         CLOUDY    50  47  89 SW8       29.94R
PERU/GRISSOM   PTSUNNY   50  50 100 W3        29.93F
SOUTH BEND     CLOUDY    49  48  97 SW8       29.95R FOG

$$

INZ006>009-017-018-025>027-271400-
NORTHEAST INDIANA

CITY           SKY/WX    TMP DP  RH WIND       PRES   REMARKS
ANGOLA *+      CLOUDY    48  41  76 W6        29.95R
FORT WAYNE     PTSUNNY   52  48  86 W7        29.96R
KENDALLVILLE + CLOUDY    49  49 100 W8        29.96R FOG

$$

INZ028-029-035-036-043>045-051>053-271400-
WEST CENTRAL INDIANA

CITY           SKY/WX    TMP DP  RH WIND       PRES   REMARKS
CRAWFORDSVL +  CLOUDY    49  49 100 SE3       29.96R FOG
GREENCASTLE +  CLOUDY    48  48 100 CALM      29.97R FOG
LAFAYETTE      CLOUDY    50  50 100 E3        29.94S
TERRE HAUTE    MOSUNNY   50  47  89 SE5       29.96R FOG

$$

INZ030>032-037>040-046>048-054>057-064-065-271400-
CENTRAL INDIANA

CITY           SKY/WX    TMP DP  RH WIND       PRES   REMARKS
ANDERSON       MOSUNNY   50  48  93 S6        29.97  FOG
COLUMBUS       SUNNY     46  46 100 CALM      29.99R FOG
INDIANAPOLIS   CLOUDY    50  49  96 SE6       29.97R FOG
-EAGLE CREEK   MOSUNNY   51  48  89 CALM      29.96S
KOKOMO +       CLOUDY    51  49  92 SW3       29.96S
SHELBYVILLE    MOSUNNY   52  47  83 S7        29.98R

$$

INZ033-034-041-042-049-050-058-059-271400-
EAST CENTRAL INDIANA

CITY           SKY/WX    TMP DP  RH WIND       PRES   REMARKS
MUNCIE         CLOUDY    53  49  86 CALM      29.96S
RICHMOND +     SUNNY     46  46 100 S6        29.99S

$$

INZ060-061-067>069-081>083-085>088-271400-
SOUTHWEST INDIANA

CITY           SKY/WX    TMP DP  RH WIND       PRES   REMARKS
EVANSVILLE     CLOUDY    51  47  86 CALM      29.95R
HUNTINGBURG *+ CLOUDY    51  48  89 E7        29.95S

$$

INZ062-063-066-070>080-084-089>092-271400-
SOUTH CENTRAL AND SOUTHEAST INDIANA

CITY           SKY/WX    TMP DP  RH WIND       PRES   REMARKS
BLOOMINGTON    MOSUNNY   50  47  89 SE6       29.97R
MADISON *+     MOSUNNY   50  48  93 CALM      30.01R
SEYMOUR +      SUNNY     50  50 100 CALM      29.99R

$$





USA.gov is the U.S. government's official web portal to all federal, state and local government web resources and services.